Regional Weather Roundup
Issued by NWS Green Bay, WI

Home | Current Version | Previous Version | Graphics & Text | Print | Product List | Glossary Off
Versions: 1 2 3 4 5 6 7 8 9 10 11 12 13 14 15 16 17 18 19 20 21 22 23 24 25 26 27 28 29 30 31 32 33 34 35 36 37 38 39 40 41 42 43 44 45 46 47 48 49 50

000
ASUS43 KGRB 280410
RWRGRB

NORTH-CENTRAL AND NORTHEAST WISCONSIN REGIONAL WEATHER ROUNDUP
NATIONAL WEATHER SERVICE GREEN BAY WI
1000 PM CST SAT DEC 27 2014

WIZ005-009-010>012-018-019-280500-
NORTH CENTRAL WISCONSIN

CITY           SKY/WX    TMP DP  RH WIND       PRES   REMARKS
IRONWOOD       MOCLDY    16  12  86 SW8       29.96R WCI   5
MANITOWISH WTR MOCLDY    10   9  98 CALM      29.97S
ARBOR VITAE    PTCLDY    13  11  91 CALM      29.98R
EAGLE RIVER    CLEAR     11   8  87 W5        29.97R WCI   3
LAND O LAKES   CLEAR     16  13  90 SW3       29.96S
RHINELANDER    CLEAR     10   8  92 W5        29.99S WCI   2
PHILLIPS       PTCLDY    11  10  92 SW3       30.00R
ANTIGO         CLEAR     16  13  91 W8        30.01S WCI   5
TOMAHAWK       CLEAR     11   9  92 CALM      30.01S
MERRILL        CLEAR     14  13  95 W3        30.03S
$$

WIZ013-073-280500-
NORTHEAST WISCONSIN

CITY           SKY/WX    TMP DP  RH WIND       PRES   REMARKS
IRON MOUNTAIN    N/A     22  15  75 W9        29.97R
MARINETTE      PTCLDY    28  19  69 NW6       30.01R
OCONTO         MOCLDY    29  22  76 W7        30.03S
$$

WIZ017-030-035>037-045-280500-
CENTRAL WISCONSIN

CITY           SKY/WX    TMP DP  RH WIND       PRES   REMARKS
MEDFORD        CLEAR     11  10  94 SW5       30.03R WCI   3
WAUSAU         CLEAR     17  14  88 W6        30.04R WCI   9
MOSINEE        CLEAR     16  16 100 W7        30.06S WCI   6
MARSHFIELD     CLEAR     16  13  88 W8        30.05S WCI   5
WISC RAPIDS    CLEAR     21  16  81 W8        30.10R
STEVENS POINT  CLEAR     19  16  87 W7        30.08R WCI  10
WAUPACA        PTCLDY    26  18  72 W8G17     30.08R
SHAWANO        MOCLDY    28  21  74 W7        30.05R
CLINTONVILLE   MOCLDY    27  19  74 W12       30.06R
$$

WIZ038-039-048-051-280500-
FOX VALLEY

CITY           SKY/WX    TMP DP  RH WIND       PRES   REMARKS
NWS GREEN BAY  CLEAR     30  22  72 W10       30.04R
APPLETON       PTCLDY    27  19  74 W10       30.05R
OSHKOSH        MOCLDY    27  20  75 W9        30.07R
FOND DU LAC    CLOUDY    29  20  69 W14       30.07S
$$

WIZ022-050-052-280500-
EAST CENTRAL WISCONSIN

CITY           SKY/WX    TMP DP  RH WIND       PRES   REMARKS
STURGEON BAY   MOCLDY    30  23  74 W14G20    30.02S
MANITOWOC      CLOUDY    31  26  82 W15       30.04S
SHEBOYGAN      CLOUDY    29  22  75 W14       30.06R
$$

LMZ563-521-522-541>543-280500-
LAKESHORE

STATION/POSITION TIME  TEMP    WIND        PRES    VSBY  WAVE
                       AIR SEA DIR/SP/G                  HT/PER
                 (UTC) (F)     (DEG/KT/KT) (MB)    (MI)  (FT/S)
SHEBOYGAN LKSHOR 0400   31 38  270/ 16/ 18 1018.5R
KEWAUNEE LKSHORE 0400   32     280/  9/ 12 1015.7R
ALGOMA MARINA    0300          300/  6/ 12   N/A
NORTHPORT PIER   0400   33     300/ 11/ 14 1015.2S
SISTER BAY LKSHO 0400          310/ 18/ 21   N/A
CHAMBERS ISLAND  0400   31     240/  6/ 13 1016.3R
MENOMINEE LKSHOR 0400   30     270/  8/ 13 1016.8S
$$


USA.gov is the U.S. government's official web portal to all federal, state and local government web resources and services.